Temp
8 8 8 8 8 9 9 9 9 9 10 10 10 10 10 10 10 10 10 10 10 10 10 10 10 10 9 9 9 8 6 5 6 5 5 5 5 4 3 3 4 3 3 2 2
7 8 8 8 8 8 9 9 9 9 9 9 9 10 9 10 10 10 10 10 10 10 10 10 10 10 10 9 9 8 7 7 6 6 5 4 4 4 3 3 3 3 3 3 3
8 8 8 8 8 8 8 8 9 9 9 9 9 9 9 10 10 10 10 10 10 10 10 10 10 10 9 9 9 8 8 7 7 6 5 4 5 4 3 3 3 2 2 2 2
7 7 8 8 8 8 8 8 8 9 9 9 9 9 9 9 10 10 10 10 10 9 9 10 9 10 9 9 9 8 8 7 6 6 5 5 4 4 3 3 3 3 3 2 2
7 7 8 7 8 8 8 8 8 8 9 9 9 9 9 9 9 9 9 9 9 9 9 9 9 9 9 9 8 8 8 7 6 6 5 4 4 4 4 3 3 3 2 2 2
7 7 7 7 7 8 8 8 8 8 9 9 9 9 9 9 9 9 9 9 9 9 9 9 9 9 9 8 8 7 7 7 6 5 5 4 4 4 4 4 4 3 3 3 2
7 7 7 7 7 7 7 8 8 8 8 8 9 9 8 8 9 9 9 8 9 9 9 9 8 8 8 8 7 7 7 6 6 6 5 4 4 4 3 3 3 4 4 4 3
6 7 7 7 7 7 7 7 7 8 8 8 8 8 8 8 8 8 8 8 8 8 8 8 8 8 8 7 7 6 7 7 7 6 4 4 6 5 4 3 3 4 4 4 3
6 6 6 6 7 7 7 7 7 7 7 8 8 8 8 8 8 8 8 8 8 8 8 8 8 8 8 7 7 6 6 6 6 6 4 4 5 5 4 3 3 3 3 4 3
5 6 6 6 6 7 7 7 7 7 7 7 8 8 8 8 8 8 8 7 8 8 8 8 7 7 7 7 7 6 5 5 6 6 5 5 5 5 4 3 3 3 3 3 3
5 5 5 6 6 6 6 7 6 6 7 7 7 7 7 7 7 7 7 7 7 7 7 7 7 7 7 7 6 5 6 5 6 6 6 6 6 5 4 3 2 3 3 3 2
5 5 5 5 5 6 6 6 6 6 7 7 7 7 7 7 7 7 7 7 7 7 7 7 7 6 6 6 6 5 6 5 5 6 6 6 7 7 5 3 2 3 3 2 2
4 4 4 5 5 5 6 6 6 6 6 7 7 7 6 6 6 6 6 6 7 7 7 7 6 6 6 6 5 6 5 5 5 6 7 6 7 7 5 3 3 3 3 2 2
4 4 4 4 4 5 5 5 5 5 5 6 7 6 6 6 6 6 6 6 6 6 6 6 6 6 6 6 5 5 4 5 5 5 5 5 4 7 5 4 4 3 2 2 2
3 3 3 4 4 4 4 5 5 5 1 6 6 6 6 6 6 6 6 6 6 5 6 6 5 5 5 5 5 4 4 5 4 4 2 3 2 6 5 4 4 2 2 2 2
3 3 3 3 4 4 4 4 4 4 4 6 6 6 6 6 6 5 5 5 5 5 5 5 5 5 5 4 4 4 4 4 3 2 -3 2 3 6 5 4 3 2 2 2 2
2 2 3 3 3 3 3 3 3 3 5 6 6 6 6 6 5 5 5 5 5 5 5 5 5 4 4 4 4 4 4 4 -1 -3 -4 2 2 6 6 5 3 2 2 2 2
2 2 2 2 2 2 2 2 2 4 6 6 6 6 5 6 5 5 5 5 5 5 5 4 5 4 4 4 4 4 4 3 -2 -4 -3 2 2 6 6 5 4 3 2 2 2
1 1 1 2 1 2 2 1 3 4 5 6 5 5 5 5 5 5 5 5 5 5 5 4 4 4 4 4 3 3 2 2 2 -1 -2 3 5 6 5 5 4 3 2 2 2
1 1 1 1 1 1 1 2 3 4 5 5 6 6 6 5 5 5 5 5 5 4 4 4 4 3 3 3 3 2 2 2 1 -4 -3 1 3 6 6 5 4 4 3 2 2
-1 -0 1 0 0 -0 0 1 2 3 4 5 5 6 5 6 5 5 5 4 4 4 4 3 3 2 3 3 3 2 2 2 1 1 -6 -7 4 6 6 5 5 4 3 2 2
-1 -0 -0 -0 -0 0 1 1 1 3 4 4 4 4 5 5 5 4 4 4 4 3 3 3 3 2 2 3 2 2 2 1 2 -0 -0 -1 3 6 6 5 4 4 4 3 2
-1 -2 -1 -1 0 1 1 1 0 2 3 3 4 4 4 4 4 4 4 3 3 3 2 2 2 2 2 1 1 1 2 1 1 1 1 -1 4 5 5 5 4 4 4 4 3
-2 -2 -3 -2 0 -0 0 0 1 1 1 2 3 3 3 4 4 4 3 3 3 2 2 1 1 1 2 2 1 1 1 1 1 0 2 2 4 6 5 4 4 3 4 5 4
-2 -2 -1 -1 -0 -0 -0 -1 0 0 1 1 2 2 3 3 3 3 3 3 2 2 2 1 0 0 0 0 1 1 1 1 1 2 1 4 4 7 6 5 5 6 6 6 5
-3 -3 -2 -1 -2 -1 -1 0 -0 0 0 1 2 2 2 2 3 3 3 3 2 2 1 1 -1 -1 -1 -1 -1 -0 1 1 1 2 2 4 5 5 5 5 5 5 6 6 5
-3 -3 -3 -2 -2 -2 -1 -1 -0 -0 0 1 1 1 2 2 2 2 1 1 1 1 1 0 -1 -2 -2 -1 -1 -0 3 3 4 4 3 3 6 5 5 5 6 6 6 6 5
Height
3147 3146 3146 3146 3146 3146 3146 3147 3148 3148 3149 3150 3151 3151 3150 3150 3150 3151 3151 3150 3150 3150 3150 3149 3148 3149 3147 3146 3146 3146 3147 3146 3146 3147 3146 3145 3144 3142 3140 3138 3137 3136 3135 3133 3130
3145 3145 3145 3146 3145 3146 3146 3146 3147 3148 3148 3149 3149 3149 3149 3149 3149 3150 3151 3149 3149 3149 3149 3149 3149 3149 3148 3147 3146 3145 3145 3145 3146 3145 3144 3143 3141 3139 3138 3135 3131 3130 3131 3129 3126
3145 3145 3145 3145 3145 3145 3145 3145 3145 3146 3147 3147 3148 3148 3148 3149 3149 3149 3149 3148 3149 3149 3148 3148 3148 3147 3147 3146 3145 3144 3144 3145 3145 3144 3142 3140 3139 3138 3136 3133 3131 3128 3125 3124 3122
3143 3144 3143 3144 3144 3144 3144 3145 3145 3146 3146 3146 3147 3147 3148 3148 3151 3148 3148 3148 3149 3148 3148 3148 3147 3146 3145 3145 3145 3144 3143 3144 3145 3142 3140 3138 3136 3135 3133 3132 3130 3127 3125 3122 3118
3141 3142 3142 3143 3144 3144 3144 3144 3144 3145 3146 3146 3146 3147 3147 3148 3148 3147 3147 3148 3148 3148 3148 3147 3147 3146 3145 3145 3144 3143 3143 3143 3143 3141 3138 3136 3135 3133 3131 3130 3127 3124 3121 3118 3115
3140 3139 3140 3141 3141 3142 3143 3143 3144 3144 3144 3145 3145 3146 3147 3148 3147 3146 3146 3147 3147 3147 3147 3147 3145 3145 3144 3144 3144 3143 3142 3142 3142 3140 3137 3134 3132 3130 3129 3127 3125 3122 3119 3116 3112
3138 3138 3140 3139 3139 3139 3140 3142 3142 3143 3144 3144 3144 3144 3145 3147 3145 3145 3145 3146 3146 3146 3146 3146 3145 3144 3144 3143 3142 3142 3142 3140 3140 3138 3135 3132 3131 3129 3126 3123 3121 3119 3116 3112 3109
3134 3135 3136 3137 3138 3138 3139 3140 3142 3143 3144 3143 3144 3144 3144 3145 3144 3145 3145 3145 3146 3145 3146 3145 3144 3143 3143 3142 3141 3141 3140 3138 3138 3136 3134 3132 3129 3127 3124 3121 3120 3117 3113 3108 3105
3130 3133 3133 3134 3135 3137 3137 3138 3139 3141 3142 3143 3143 3143 3144 3144 3144 3143 3144 3145 3145 3145 3145 3144 3143 3143 3142 3141 3141 3139 3138 3136 3137 3136 3133 3131 3127 3124 3122 3120 3117 3114 3111 3107 3103
3126 3128 3130 3133 3133 3134 3135 3136 3138 3139 3140 3141 3141 3144 3143 3143 3142 3142 3142 3143 3143 3143 3144 3143 3143 3142 3140 3140 3139 3138 3137 3135 3134 3134 3131 3128 3126 3123 3120 3117 3115 3113 3110 3106 3101
3122 3124 3126 3128 3131 3130 3132 3133 3137 3139 3138 3139 3139 3139 3141 3142 3141 3141 3141 3141 3142 3143 3142 3141 3142 3141 3139 3138 3138 3137 3135 3133 3132 3131 3129 3126 3124 3122 3117 3113 3112 3111 3108 3103 3100
3117 3120 3122 3123 3126 3128 3130 3130 3132 3136 3136 3135 3137 3138 3139 3139 3139 3139 3140 3142 3140 3139 3140 3140 3139 3139 3137 3137 3137 3135 3133 3132 3129 3128 3126 3124 3121 3118 3116 3113 3111 3109 3106 3104 3099
3112 3116 3118 3120 3122 3125 3126 3129 3128 3131 3133 3132 3132 3135 3137 3139 3137 3137 3138 3138 3138 3138 3138 3138 3139 3137 3136 3136 3135 3133 3132 3130 3128 3124 3123 3120 3117 3116 3115 3112 3109 3108 3106 3103 3099
3106 3109 3113 3116 3120 3121 3123 3125 3128 3128 3130 3130 3129 3130 3133 3135 3136 3135 3136 3137 3136 3136 3137 3136 3136 3136 3135 3134 3133 3131 3130 3128 3126 3123 3122 3121 3119 3114 3113 3110 3109 3107 3104 3101 3097
3102 3103 3107 3111 3113 3117 3120 3121 3124 3127 3127 3126 3125 3126 3129 3132 3133 3133 3134 3134 3135 3135 3137 3135 3134 3133 3133 3133 3132 3131 3128 3125 3123 3121 3120 3119 3120 3111 3110 3107 3106 3104 3102 3100 3097
3095 3097 3101 3105 3109 3112 3115 3119 3121 3125 3120 3120 3121 3122 3126 3128 3130 3130 3132 3133 3133 3134 3134 3132 3132 3132 3131 3131 3129 3128 3126 3123 3120 3119 3119 3118 3120 3110 3109 3108 3105 3103 3102 3099 3095
3088 3091 3096 3100 3104 3106 3111 3115 3120 3115 3114 3116 3117 3120 3122 3124 3127 3128 3129 3131 3132 3133 3132 3131 3130 3129 3129 3129 3128 3127 3126 3123 3123 3121 3121 3117 3117 3110 3109 3108 3107 3104 3100 3098 3094
3080 3084 3089 3094 3097 3101 3106 3111 3108 3105 3108 3109 3112 3116 3119 3121 3125 3126 3127 3128 3129 3130 3130 3130 3128 3127 3128 3128 3127 3125 3126 3125 3132 3128 3119 3115 3111 3110 3109 3108 3105 3103 3100 3097 3093
3071 3076 3081 3088 3090 3095 3099 3099 3097 3100 3104 3106 3109 3111 3115 3118 3121 3122 3125 3126 3126 3126 3128 3128 3127 3126 3126 3126 3127 3124 3125 3126 3124 3122 3121 3112 3109 3108 3107 3107 3105 3103 3099 3096 3093
3063 3069 3074 3079 3084 3088 3090 3088 3091 3095 3098 3101 3105 3107 3109 3113 3117 3118 3121 3123 3124 3124 3124 3125 3126 3125 3124 3124 3124 3124 3125 3124 3123 3126 3125 3111 3107 3105 3106 3105 3103 3101 3099 3096 3092
3053 3058 3064 3070 3076 3079 3075 3078 3084 3090 3095 3099 3100 3102 3105 3108 3113 3114 3117 3120 3120 3122 3122 3123 3124 3125 3123 3122 3121 3122 3121 3122 3122 3122 3122 3124 3106 3104 3104 3104 3102 3100 3098 3095 3092
3040 3047 3055 3059 3065 3063 3064 3072 3079 3084 3090 3093 3096 3098 3101 3105 3108 3110 3113 3115 3116 3117 3120 3120 3121 3121 3121 3120 3119 3118 3118 3119 3120 3120 3118 3117 3106 3102 3102 3101 3099 3097 3097 3095 3092
3029 3035 3042 3049 3049 3051 3057 3063 3071 3076 3082 3087 3091 3094 3097 3100 3104 3105 3108 3111 3112 3113 3115 3117 3118 3119 3117 3118 3115 3114 3114 3115 3116 3116 3113 3115 3104 3101 3101 3100 3098 3096 3095 3094 3093
3020 3023 3027 3035 3035 3042 3048 3053 3061 3068 3074 3080 3084 3088 3092 3095 3098 3100 3103 3106 3108 3109 3111 3112 3114 3115 3115 3114 3115 3114 3113 3113 3113 3112 3107 3101 3096 3097 3098 3097 3096 3093 3091 3091 3090
3007 3010 3015 3017 3024 3032 3043 3047 3053 3059 3067 3072 3076 3081 3086 3089 3092 3094 3097 3100 3103 3104 3106 3108 3109 3109 3110 3110 3109 3108 3108 3108 3105 3105 3102 3095 3091 3089 3091 3089 3089 3088 3088 3087 3086
2997 3002 3005 3012 3022 3028 3031 3034 3042 3050 3058 3062 3067 3075 3079 3083 3086 3089 3093 3095 3098 3098 3101 3102 3103 3104 3103 3104 3104 3101 3101 3100 3098 3095 3092 3090 3084 3088 3086 3084 3084 3084 3085 3085 3085
2985 2993 2999 3003 3008 3017 3015 3024 3035 3046 3051 3055 3064 3069 3073 3079 3081 3083 3087 3089 3092 3094 3095 3097 3099 3100 3099 3098 3098 3096 3089 3090 3088 3086 3087 3085 3083 3082 3081 3080 3080 3081 3082 3082 3083
Wind_Speed
6 5 4 3 2 2 2 1 2 3 4 4 5 4 4 4 2 1 1 2 4 5 6 7 6 4 4 4 3 2 4 6 6 5 7 5 9 11 11 15 13 12 13 15 18
6 6 4 3 3 2 1 2 2 2 3 5 5 5 5 4 3 2 1 1 4 5 5 5 4 5 4 4 3 0 2 4 5 5 5 5 6 11 13 16 19 20 18 17 19
7 6 5 4 3 3 3 2 3 2 3 3 4 5 5 6 4 2 2 2 4 5 5 4 5 5 5 4 4 3 2 3 1 2 1 5 10 11 12 14 16 19 20 19 18
8 7 6 6 4 3 3 3 2 3 3 3 3 4 5 6 4 5 3 3 4 4 5 6 5 6 5 5 4 2 5 4 1 1 5 8 10 11 13 14 14 15 17 17 18
10 9 8 6 5 4 4 4 4 3 3 4 4 4 4 5 3 2 2 3 4 3 4 5 5 5 4 4 4 4 4 3 2 4 7 8 8 9 12 13 14 15 15 15 17
12 11 11 9 7 6 5 5 5 5 5 5 5 5 4 7 5 4 3 3 4 4 4 5 5 5 5 4 4 3 3 2 5 5 8 7 8 12 11 13 14 14 13 14 15
14 11 11 11 9 8 7 6 7 6 6 5 6 6 5 7 7 6 4 3 5 5 4 5 4 4 5 4 4 3 2 5 5 9 9 10 8 10 11 13 15 16 16 15 16
14 13 13 12 11 10 9 7 7 7 6 5 5 5 5 6 4 4 4 3 4 4 4 5 4 4 4 3 3 3 5 11 14 13 11 11 9 11 10 11 13 16 18 20 20
15 15 14 13 12 11 10 9 8 8 7 6 5 6 6 7 6 5 5 4 4 4 4 4 4 4 5 4 3 3 6 11 14 15 11 13 9 14 10 9 13 16 18 20 21
18 16 14 14 13 13 11 11 9 9 8 7 6 5 6 6 6 7 6 5 5 4 4 4 4 5 5 6 3 5 6 9 14 20 15 14 11 11 9 9 12 14 17 19 21
20 18 16 15 15 14 15 14 11 10 11 9 7 5 8 6 6 6 6 5 5 4 5 4 4 5 5 6 6 7 9 8 13 16 21 15 14 11 11 9 12 13 16 19 19
23 21 18 17 15 15 16 15 12 10 11 9 10 10 10 8 7 6 6 6 5 4 5 5 5 4 4 7 8 10 10 8 9 16 21 17 21 13 9 13 10 10 14 16 19
24 22 20 19 17 17 17 16 13 12 12 11 11 12 11 10 8 8 7 6 5 5 4 5 6 6 5 7 10 12 11 12 15 14 18 18 12 7 11 13 12 9 11 14 16
26 25 22 21 19 18 17 16 13 11 8 9 14 14 13 14 11 10 9 6 6 4 3 4 2 3 7 8 11 12 11 14 18 15 6 14 7 7 12 14 15 10 11 15 19
28 26 24 23 20 18 17 17 14 9 1 8 15 12 12 12 5 6 8 6 5 5 4 6 6 6 7 8 9 9 12 15 17 12 6 5 5 6 13 15 21 15 12 14 17
30 28 26 24 21 20 19 17 15 10 7 8 11 14 13 11 9 6 5 5 4 5 5 6 6 6 5 9 9 9 11 16 10 6 1 1 4 7 8 16 20 12 10 12 17
31 29 27 25 23 22 20 19 15 9 12 10 14 14 14 12 11 9 7 5 3 3 3 5 7 8 8 6 6 6 11 5 4 3 3 3 8 4 11 14 17 12 10 12 17
32 31 29 27 25 24 23 24 14 12 17 11 18 18 16 13 12 11 8 6 5 6 6 5 4 2 3 3 5 8 3 0 4 2 5 11 6 4 12 15 16 12 10 11 14
34 33 31 29 28 28 28 31 22 13 27 22 16 21 18 18 12 12 9 5 6 7 4 3 4 2 5 7 5 2 2 2 3 4 4 4 5 8 5 13 13 11 9 11 13
35 34 32 32 31 31 33 36 29 23 17 25 26 20 22 22 16 15 8 5 3 3 3 4 5 6 6 6 7 7 4 2 2 1 4 6 8 4 6 13 14 13 11 11 14
36 37 37 35 35 35 42 43 37 23 22 20 28 24 21 22 18 17 9 7 5 5 7 7 7 7 7 5 6 6 6 5 3 3 4 1 5 5 10 12 22 23 17 13 14
41 43 42 40 41 46 49 44 39 38 25 24 22 25 21 23 22 20 12 8 5 3 7 7 6 7 9 11 13 13 10 10 5 4 5 3 11 3 4 13 28 24 21 16 14
45 44 40 43 49 51 50 47 42 39 39 30 27 24 21 24 23 21 16 12 8 5 5 5 5 4 5 8 11 12 9 11 13 9 11 3 8 11 19 26 21 20 25 22 18
48 48 47 45 54 54 52 48 45 42 38 39 33 29 25 24 27 19 18 13 9 7 6 6 14 17 11 5 6 11 14 12 14 10 14 25 35 27 27 21 24 29 28 23 20
50 47 54 43 59 55 52 45 48 44 42 40 40 35 30 27 27 25 21 19 15 13 11 11 16 18 19 22 24 24 22 21 25 26 25 33 37 25 25 23 17 18 20 17 14
41 55 54 56 44 60 50 52 49 47 43 44 43 40 35 32 29 28 23 24 20 21 18 16 15 15 20 19 23 29 30 31 32 34 35 35 35 21 15 12 9 10 11 11 9
45 43 53 45 50 45 54 61 50 44 42 43 36 37 37 35 31 26 21 21 23 22 23 20 18 14 10 11 14 20 25 24 25 29 28 29 19 13 7 12 11 9 10 8 7
Wind_Direction
223 209 204 208 194 177 198 218 215 208 217 233 250 253 257 237 226 231 19 21 6 2 7 9 20 14 39 36 10 97 140 196 258 261 283 334 328 350 348 339 350 345 339 325 314
219 216 205 213 205 196 205 209 212 220 221 232 234 243 241 233 209 231 280 349 357 356 354 18 337 2 11 21 352 248 219 256 284 280 300 339 356 2 354 353 350 343 349 341 331
231 228 220 218 222 213 214 195 214 208 221 228 245 236 238 229 217 231 285 339 344 340 337 348 343 357 0 8 6 345 18 15 315 230 305 7 18 20 8 2 353 347 343 330 324
229 234 225 233 228 235 227 218 209 216 225 218 231 237 245 235 247 257 279 324 330 334 332 332 339 348 346 0 10 49 55 60 14 35 45 28 28 21 13 4 351 344 332 327 330
234 232 234 236 238 240 241 233 211 217 226 238 241 245 235 236 227 249 271 319 317 327 328 323 331 348 342 355 22 57 70 59 13 10 37 41 32 22 15 3 357 349 339 340 337
236 230 229 228 226 226 234 236 233 222 221 237 237 250 243 249 264 280 287 310 312 317 327 321 344 353 340 353 23 62 59 33 351 350 16 40 27 13 8 2 4 355 348 354 348
241 236 238 227 226 219 222 228 230 224 229 238 239 245 251 269 266 263 269 298 311 316 325 329 345 359 342 328 356 354 351 348 311 337 358 12 16 6 3 3 357 352 351 358 355
239 234 233 230 226 222 221 222 230 241 237 237 251 265 271 278 269 262 276 300 304 315 322 327 337 343 333 321 343 6 13 353 341 326 325 348 340 3 356 352 347 347 351 355 355
236 238 230 229 224 226 221 223 226 238 244 251 250 257 266 267 261 261 274 287 298 306 310 316 320 319 319 315 291 1 347 356 338 323 319 322 324 342 351 341 344 346 348 352 353
235 234 232 234 222 223 222 222 227 237 241 249 253 259 265 266 264 260 263 274 285 290 295 309 310 317 310 319 315 322 326 341 335 331 320 304 312 313 328 345 343 341 349 349 351
234 234 229 227 230 223 219 219 217 232 236 237 250 246 260 262 256 259 262 262 274 276 282 294 313 314 315 319 319 310 310 331 337 339 325 309 311 297 329 343 335 335 349 352 348
232 233 231 224 226 227 228 220 214 233 234 240 258 259 254 247 244 248 255 256 253 260 281 297 304 308 301 304 304 298 310 319 328 344 328 311 315 276 328 4 330 338 353 352 350
233 234 232 230 225 227 226 229 216 222 240 236 233 250 252 249 237 238 241 249 256 269 279 290 294 297 293 299 301 306 312 320 319 334 327 321 320 307 311 327 354 348 352 349 349
229 230 231 228 226 223 225 225 223 223 237 240 229 230 237 246 249 244 242 237 251 255 274 285 325 296 299 302 304 310 316 317 317 319 326 321 293 317 331 330 345 357 358 353 351
230 229 228 227 226 223 221 218 215 205 5 231 220 214 218 206 223 225 234 233 241 251 252 270 287 294 292 297 302 303 315 317 314 308 328 329 306 301 326 331 340 347 359 351 349
229 227 226 225 225 222 217 211 199 189 237 213 200 206 201 210 215 212 214 221 239 264 272 276 279 279 274 291 293 302 316 311 303 306 331 71 349 298 323 326 335 339 347 352 353
227 227 225 222 220 216 213 201 190 209 205 206 202 196 192 197 202 202 203 219 246 280 271 300 284 279 281 278 288 314 323 309 340 360 204 275 304 279 326 333 331 328 345 358 355
226 225 224 218 216 216 209 200 217 213 195 189 192 190 191 190 197 197 200 211 242 263 276 281 290 277 262 253 289 309 321 34 228 302 278 280 241 317 328 333 331 330 338 352 355
225 225 220 219 214 213 208 205 216 203 214 210 188 192 195 191 189 194 203 231 270 261 219 236 255 231 268 278 291 280 289 282 266 294 316 279 286 318 358 348 336 334 339 348 352
224 225 221 218 216 212 213 218 217 210 211 214 218 202 197 195 191 189 195 198 242 249 256 247 269 263 268 275 270 243 252 274 252 47 303 284 281 262 325 345 344 342 347 352 353
226 221 214 214 216 214 217 219 217 210 207 212 214 214 204 203 196 189 197 210 247 259 255 257 259 265 270 257 254 244 247 236 233 235 168 288 284 304 322 344 351 344 341 348 350
221 218 216 211 211 219 223 221 221 215 213 216 213 212 212 204 205 201 202 213 203 281 248 249 266 264 263 273 263 259 249 234 223 215 219 241 281 331 330 322 335 334 332 338 344
222 219 214 215 217 221 225 225 224 221 219 217 218 215 211 206 201 207 208 217 220 233 226 275 251 283 283 271 261 255 257 245 241 242 235 187 262 296 308 314 318 322 320 317 327
230 214 210 211 223 223 224 226 223 223 221 223 226 222 218 209 210 213 217 218 211 235 265 293 269 247 251 260 283 281 284 272 239 236 256 255 287 296 298 304 305 300 300 308 311
227 213 224 219 221 222 226 228 229 225 223 222 225 224 221 214 214 222 221 228 226 239 263 301 276 262 266 262 268 274 273 274 267 273 262 287 286 308 315 300 279 283 296 300 291
230 229 229 232 231 226 225 227 228 227 225 223 225 226 225 229 233 230 230 238 235 253 258 282 264 272 284 280 268 272 270 270 269 268 268 277 291 330 311 267 260 287 289 294 282
232 234 229 234 229 224 229 229 234 234 232 231 235 233 230 233 232 235 233 227 243 247 253 273 260 265 281 286 280 279 274 266 271 274 275 273 310 320 310 261 262 263 275 283 281